Sparta, IL

3:43 PM CST on December 10, 2019 (GMT -0600)
Sparta Community-Hunter

Weather History for KSAR - November, 2019

Change the Weather History Date:

Saturday, November 16, 2019

  Actual Average (KBLV) Record (KBLV)
Temperature  
Mean Temperature 36 °F -  
Max Temperature 47 °F 55 °F 75 °F (1952)
Min Temperature 24 °F 34 °F 15 °F (1959)
Degree Days  
Heating Degree Days 30    
Moisture  
Dew Point 30 °F    
Average Humidity 85    
Maximum Humidity 100    
Minimum Humidity 59    
Precipitation  
Precipitation 0.00 in - - ()
Sea Level Pressure  
Sea Level Pressure 30.29 in    
Wind  
Wind Speed 1 mph ()    
Max Wind Speed 7 mph    
Max Gust Speed -    
Visibility 7.9 miles    
Events      
Averages and records for this station are not official NWS values.
T = Trace of Precipitation, MM = Missing Value Source: Averaged Metar Reports

Daily Weather History Graph

Daily Weather History Graph

Search for Another Location

Airport or City:

Astronomy

Nov. 16, 2019 Rise Set
Actual Time 6:40 AM CST 4:46 PM CST
Civil Twilight 6:12 AM CST 5:14 PM CST
Nautical Twilight 5:40 AM CST 5:46 PM CST
Astronomical Twilight 5:09 AM CST 6:17 PM CST
Moon 8:20 PM CST (11/16) 10:32 AM CST (11/16)
Length of Visible Light 11h 01m
Length of Day
10h 05m
Waning Gibbous, 82% of the Moon is Illuminated
Nov 16
Waning Gibbous
Nov 19
Last Quarter
Nov 26
New
Dec 4
First Quarter
Dec 11
Full

Hourly Weather History & Observations

Time (CST) Temp. Windchill Dew Point Humidity Pressure Visibility Wind Dir Wind Speed Gust Speed Precip Events Conditions
12:15 AM 28.9 °F - 26.6 °F 91% 30.37 in 10.0 mi Calm Calm - N/A   Clear
12:35 AM 27.7 °F - 25.3 °F 91% 30.36 in 10.0 mi Calm Calm - N/A   Clear
12:55 AM 28.8 °F - 26.2 °F 90% 30.36 in 10.0 mi Calm Calm - N/A   Clear
1:15 AM 28.6 °F - 26.2 °F 91% 30.36 in 10.0 mi Calm Calm - N/A   Clear
1:35 AM 27.1 °F - 25.7 °F 94% 30.36 in 10.0 mi Calm Calm - N/A   Clear
1:55 AM 26.6 °F - 25.2 °F 94% 30.36 in 10.0 mi Calm Calm - N/A   Clear
2:15 AM 25.7 °F - 24.3 °F 94% 30.35 in 10.0 mi Calm Calm - N/A   Clear
2:35 AM 27.3 °F - 25.7 °F 94% 30.35 in 10.0 mi Calm Calm - N/A   Clear
3:15 AM 26.4 °F - 26.4 °F 100% 30.35 in 7.0 mi Calm Calm - N/A   Clear
3:35 AM 26.4 °F - 26.4 °F 100% 30.35 in 10.0 mi Calm Calm - N/A   Clear
3:55 AM 26.8 °F - 25.9 °F 96% 30.35 in 10.0 mi Calm Calm - N/A   Clear
4:15 AM 26.6 °F - 25.7 °F 96% 30.36 in 10.0 mi Calm Calm - N/A   Clear
4:35 AM 26.6 °F - 25.5 °F 96% 30.36 in 10.0 mi Calm Calm - N/A   Clear
4:55 AM 25.7 °F - 24.3 °F 94% 30.36 in 10.0 mi Calm Calm - N/A   Clear
5:15 AM 26.6 °F - 25.2 °F 94% 30.36 in 10.0 mi Calm Calm - N/A   Clear
5:35 AM 26.4 °F - 24.8 °F 94% 30.36 in 10.0 mi Calm Calm - N/A   Clear
5:55 AM 26.1 °F - 24.8 °F 95% 30.37 in 10.0 mi Calm Calm - N/A   Clear
6:20 AM 25.2 °F - 24.8 °F 99% 30.37 in 7.0 mi Calm Calm - N/A   Clear
6:35 AM 24.8 °F - 24.8 °F 100% 30.37 in 7.0 mi Calm Calm - N/A   Clear
6:55 AM 24.6 °F - 24.6 °F 100% 30.38 in 5.0 mi Calm Calm - N/A   Clear
7:15 AM 24.4 °F - 24.4 °F 100% 30.37 in 7.0 mi Calm Calm - N/A   Clear
7:35 AM 25.3 °F - 24.8 °F 98% 30.37 in 10.0 mi Calm Calm - N/A   Clear
7:55 AM 27.5 °F - 27.0 °F 98% 30.37 in 7.0 mi Calm Calm - N/A   Clear
8:15 AM 30.7 °F 27.3 °F 29.3 °F 94% 30.37 in 5.0 mi East 3.5 mph - N/A   Clear
8:35 AM 32.5 °F 29.3 °F 30.7 °F 93% 30.37 in 3.0 mi East 3.5 mph - N/A   Clear
8:55 AM 34.7 °F 28.8 °F 31.5 °F 88% 30.37 in 10.0 mi East 6.9 mph - N/A   Clear
9:15 AM 35.6 °F 29.9 °F 31.8 °F 86% 30.36 in 10.0 mi ENE 6.9 mph - N/A   Clear
9:35 AM 36.9 °F 34.3 °F 32.0 °F 83% 30.36 in 10.0 mi ENE 3.5 mph - N/A   Clear
9:55 AM 37.4 °F - 32.0 °F 81% 30.36 in 10.0 mi Calm Calm - N/A   Clear
10:15 AM 38.8 °F - 32.2 °F 77% 30.35 in 10.0 mi Calm Calm - N/A   Clear
10:35 AM 39.6 °F - 32.4 °F 75% 30.35 in 10.0 mi Calm Calm - N/A   Clear
10:55 AM 40.1 °F - 32.4 °F 74% 30.34 in 10.0 mi Calm Calm - N/A   Clear
11:15 AM 41.7 °F - 33.1 °F 71% 30.34 in 10.0 mi Calm Calm - N/A   Clear
11:35 AM 41.9 °F 40.0 °F 32.9 °F 70% 30.32 in 10.0 mi NE 3.5 mph - N/A   Clear
11:55 AM 43.0 °F - 33.6 °F 70% 30.31 in 10.0 mi Calm Calm - N/A   Clear
12:15 PM 43.3 °F - 33.6 °F 69% 30.30 in 10.0 mi Calm Calm - N/A   Clear
12:35 PM 45.0 °F - 34.3 °F 66% 30.29 in 10.0 mi Calm Calm - N/A   Clear
12:55 PM 44.6 °F - 33.8 °F 66% 30.28 in 10.0 mi Calm Calm - N/A   Clear
1:15 PM 45.3 °F 44.0 °F 34.0 °F 65% 30.27 in 10.0 mi East 3.5 mph - N/A   Clear
1:35 PM 45.5 °F 44.2 °F 34.0 °F 64% 30.26 in 10.0 mi North 3.5 mph - N/A   Clear
1:55 PM 46.0 °F - 34.2 °F 63% 30.25 in 10.0 mi Calm Calm - N/A   Clear
2:15 PM 46.8 °F - 33.8 °F 61% 30.24 in 10.0 mi ENE 4.6 mph - N/A   Clear
2:35 PM 46.4 °F 45.2 °F 33.3 °F 60% 30.25 in 10.0 mi ENE 3.5 mph - N/A   Clear
2:55 PM 47.5 °F - 34.0 °F 59% 30.24 in 10.0 mi ENE 4.6 mph - N/A   Clear
3:15 PM 45.9 °F 43.6 °F 34.0 °F 63% 30.23 in 10.0 mi East 4.6 mph - N/A   Clear
3:35 PM 46.6 °F - 34.7 °F 63% 30.23 in 10.0 mi ENE 4.6 mph - N/A   Clear
3:55 PM 46.0 °F 44.8 °F 34.0 °F 63% 30.23 in 10.0 mi NE 3.5 mph - N/A   Clear
4:15 PM 45.5 °F - 34.7 °F 66% 30.22 in 10.0 mi Calm Calm - N/A   Clear
4:35 PM 44.2 °F 41.8 °F 34.5 °F 69% 30.21 in 2.5 mi ENE 4.6 mph - N/A   Haze
4:55 PM 40.6 °F 37.5 °F 33.4 °F 75% 30.21 in 2.0 mi ENE 4.6 mph - N/A   Haze
5:15 PM 38.7 °F 34.3 °F 33.3 °F 81% 30.21 in 1.8 mi ENE 5.8 mph - N/A   Haze
5:35 PM 37.9 °F - 32.9 °F 82% 30.21 in 2.0 mi Calm Calm - N/A   Haze
5:55 PM 37.6 °F 35.1 °F 32.7 °F 83% 30.21 in 2.0 mi ENE 3.5 mph - N/A   Haze
6:15 PM 37.2 °F - 32.9 °F 84% 30.21 in 2.5 mi Calm Calm - N/A   Clear
6:35 PM 36.1 °F - 32.0 °F 85% 30.21 in 10.0 mi Calm Calm - N/A   Clear
6:55 PM 34.2 °F 30.0 °F 31.6 °F 90% 30.20 in 5.0 mi East 4.6 mph - N/A   Clear
7:15 PM 33.1 °F 30.0 °F 31.3 °F 93% 30.20 in 7.0 mi ESE 3.5 mph - N/A   Clear
7:35 PM 33.4 °F - 31.5 °F 92% 30.20 in 10.0 mi Calm Calm - N/A   Clear
7:55 PM 36.5 °F - 32.7 °F 86% 30.21 in 10.0 mi Calm Calm - N/A   Clear
8:15 PM 35.1 °F - 32.2 °F 89% 30.21 in 10.0 mi Calm Calm - N/A   Clear
8:35 PM 32.9 °F - 31.6 °F 95% 30.21 in 10.0 mi Calm Calm - N/A   Clear
8:55 PM 29.8 °F 23.9 °F 28.8 °F 96% 30.19 in 7.0 mi East 5.8 mph - N/A   Clear
9:15 PM 29.8 °F 23.9 °F 29.1 °F 97% 30.19 in 5.0 mi East 5.8 mph - N/A   Clear
9:35 PM 32.2 °F 26.7 °F 30.9 °F 95% 30.19 in 2.0 mi ESE 5.8 mph - N/A   Clear
9:55 PM 32.9 °F - 31.1 °F 93% 30.19 in 4.0 mi Calm Calm - N/A   Clear
10:15 PM 31.6 °F 27.0 °F 29.8 °F 93% 30.18 in 2.0 mi ESE 4.6 mph - N/A   Clear
10:35 PM 32.0 °F 27.5 °F 29.8 °F 92% 30.18 in 3.0 mi ESE 4.6 mph - N/A   Clear
10:55 PM 32.0 °F 28.7 °F 30.6 °F 94% 30.18 in 2.5 mi ESE 3.5 mph - N/A   Clear
11:15 PM 31.8 °F - 30.2 °F 94% 30.17 in 2.5 mi Calm Calm - N/A   Clear
11:35 PM 32.0 °F - 30.7 °F 95% 30.18 in 4.0 mi Calm Calm - N/A   Clear
11:55 PM 32.0 °F - 31.1 °F 96% 30.18 in 7.0 mi Calm Calm - N/A   Clear